Point Lay, AK

6:37 AM AKDT on July 25, 2016 (GMT -0800)
Point Lay

Weather History for PPIZ - January, 2012

Change the Weather History Date:

Sunday, January 22, 2012

  Actual Average Record
Temperature  
Mean Temperature -28 °F -  
Max Temperature -15 °F -7 °F 24 °F (1999)
Min Temperature -42 °F -19 °F -42 °F (2012)
Degree Days  
Heating Degree Days 94    
Moisture  
Dew Point -30 °F    
Average Humidity 71    
Maximum Humidity 78    
Minimum Humidity 69    
Precipitation  
Precipitation 0.00 in - - ()
Sea Level Pressure  
Sea Level Pressure 30.11 in    
Wind  
Wind Speed 6 mph (NNE)    
Max Wind Speed 10 mph    
Max Gust Speed -    
Visibility 9 miles    
Events      
Averages and records for this station are not official NWS values.
T = Trace of Precipitation, MM = Missing Value Source: NWS Daily Summary

Daily Weather History Graph

Daily Weather History Graph

Search for Another Location

Airport or City:

Trip Planner

Search our weather history database for the weather conditions in past years. The results will help you decide how hot, cold, wet, or windy it might be!

Date:

Astronomy

Jan. 22, 2012 Rise Set
Actual Time 12:32 PM AKST 3:35 PM AKST
Civil Twilight 10:44 AM AKST 5:23 PM AKST
Nautical Twilight 9:20 AM AKST 6:47 PM AKST
Astronomical Twilight 8:08 AM AKST 7:59 PM AKST
Moon 11:32 AM AKST (1/22) 4:04 PM AKST (1/22)
Length of Visible Light 6h 38m
Length of Day
3h 02m
Waning Crescent, 0% of the Moon is Illuminated
Jan 22
Waning Crescent
Jan 22
New
Jan 30
First Quarter
Feb 7
Full
Feb 14
Last Quarter

Hourly Weather History & Observations

Time (AKST) Temp. Windchill Dew Point Humidity Pressure Visibility Wind Dir Wind Speed Gust Speed Precip Events Conditions
12:56 AM -15.9 °F -30.4 °F -22.0 °F 74% 29.96 in 9.0 mi NNW 5.8 mph - N/A   Overcast
1:56 AM -15.9 °F -32.1 °F -20.9 °F 78% 29.97 in 7.0 mi North 6.9 mph - N/A   Mostly Cloudy
2:56 AM -17.9 °F -35.9 °F -24.0 °F 74% 29.99 in 10.0 mi NNE 8.1 mph - N/A   Scattered Clouds
3:56 AM -22.0 °F -43.6 °F -27.9 °F 74% 30.00 in 9.0 mi NNE 10.4 mph - N/A   Clear
4:56 AM -24.9 °F -44.5 °F -31.9 °F 70% 30.01 in 9.0 mi NNE 8.1 mph - N/A   Clear
5:56 AM -26.9 °F -45.3 °F -33.9 °F 69% 30.03 in 9.0 mi NNE 6.9 mph - N/A   Clear
6:56 AM -26.0 °F - -33.0 °F 69% 30.05 in 9.0 mi North - - N/A   Clear
7:56 AM -26.0 °F -44.2 °F -33.0 °F 69% 30.06 in 9.0 mi North 6.9 mph - N/A   Clear
8:56 AM -24.9 °F -38.9 °F -31.9 °F 70% 30.07 in 9.0 mi NNE 4.6 mph - N/A   Clear
9:56 AM -24.9 °F -41.1 °F -31.9 °F 70% 30.08 in 9.0 mi NNE 5.8 mph - N/A   Clear
10:56 AM -26.0 °F -40.2 °F -33.0 °F 69% 30.09 in 8.0 mi North 4.6 mph - N/A   Clear
11:56 AM -26.9 °F - -33.9 °F 69% 30.10 in 7.0 mi Calm Calm - N/A   Clear
12:56 PM -28.8 °F -43.6 °F -35.9 °F 69% 30.12 in 7.0 mi NNE 4.6 mph - N/A   Clear
1:56 PM -31.0 °F -48.4 °F - N/A% 30.13 in 7.0 mi NNE 5.8 mph - N/A   Clear
2:56 PM -33.0 °F -52.7 °F - N/A% 30.14 in 8.0 mi NNE 6.9 mph - N/A   Clear
3:56 PM -33.9 °F -51.8 °F - N/A% 30.16 in 9.0 mi NNE 5.8 mph - N/A   Clear
4:56 PM -36.9 °F -55.4 °F - N/A% 30.18 in 8.0 mi NNE 5.8 mph - N/A   Clear
5:56 PM -37.8 °F -58.5 °F - N/A% 30.19 in 10.0 mi NNE 6.9 mph - N/A   Clear
6:56 PM -38.9 °F -57.8 °F - N/A% 30.20 in 10.0 mi NE 5.8 mph - N/A   Clear
7:56 PM -40.0 °F -61.1 °F - N/A% 30.22 in 10.0 mi NNE 6.9 mph - N/A   Clear
8:56 PM -40.0 °F -56.6 °F - N/A% 30.22 in 10.0 mi ENE 4.6 mph - N/A   Clear
9:56 PM -42.0 °F -61.4 °F - N/A% 30.22 in 10.0 mi NNE 5.8 mph - N/A   Clear
10:56 PM -42.0 °F -61.4 °F - N/A% 30.23 in 10.0 mi NNE 5.8 mph - N/A   Clear
11:56 PM -42.9 °F -64.6 °F - N/A% 30.23 in 10.0 mi NE 6.9 mph - N/A   Clear